Location: Gipe Farm
(40.9466°N, 95.5370°W)
Time: 12:41:25
(UTC-06:00)

Cosmos 1842 - Visible Passes

Search period start: 18 December 2017 00:00
Search period end: 28 December 2017 00:00
Orbit: 524 x 539 km, 82.5° (Epoch: 18 December)

Date Brightness Start Highest point End Pass type
(mag) Time Alt. Az. Time Alt. Az. Time Alt. Az.
18 Dec 6.3 05:43:40 10° NE 05:45:19 12° ENE 05:46:58 10° E visible
19 Dec 6.4 05:33:49 10° NE 05:35:11 11° ENE 05:36:34 10° E visible
19 Dec 3.5 07:07:42 10° NNW 07:11:33 50° W 07:15:22 10° S visible
20 Dec 6.5 05:24:03 10° NE 05:25:04 11° ENE 05:26:04 10° E visible
20 Dec 3.4 06:57:34 10° NNW 07:01:27 54° W 07:05:18 10° S visible
21 Dec 6.6 05:14:31 10° ENE 05:14:55 10° ENE 05:15:20 10° ENE visible
21 Dec 3.3 06:47:26 10° NNW 06:51:21 58° W 06:55:14 10° S visible
21 Dec 5.5 19:04:11 10° S 19:04:58 15° S 19:04:58 15° S visible
22 Dec 3.3 06:37:19 10° NNW 06:41:15 62° W 06:45:09 10° S visible
22 Dec 4.6 18:54:06 10° S 18:56:02 27° SSE 18:56:02 27° SSE visible
23 Dec 3.2 06:27:11 10° NNW 06:31:09 66° W 06:35:03 10° S visible
23 Dec 3.7 18:44:02 10° SSE 18:47:03 42° SE 18:47:03 42° SE visible
24 Dec 3.2 06:17:09 10° NNW 06:21:03 71° W 06:24:58 10° S visible
24 Dec 3.5 18:33:57 10° SSE 18:37:40 44° E 18:38:05 43° ENE visible
24 Dec 6.4 20:12:17 10° W 20:13:29 12° WNW 20:13:29 12° WNW visible
25 Dec 3.1 06:07:54 17° NNW 06:10:56 76° W 06:14:52 10° S visible
25 Dec 3.6 18:23:53 10° SSE 18:27:34 42° E 18:29:02 29° NE visible
25 Dec 6.3 20:01:55 10° W 20:03:50 13° WNW 20:04:26 13° WNW visible
26 Dec 3.1 05:58:43 27° NNW 06:00:49 82° W 06:04:46 10° S visible
26 Dec 3.7 18:13:49 10° SSE 18:17:28 39° E 18:19:57 18° NNE visible
26 Dec 6.2 19:51:35 10° WSW 19:53:42 14° WNW 19:55:20 11° NW visible
27 Dec 3.1 05:49:36 47° N 05:50:42 87° W 05:54:39 10° S visible
27 Dec 3.8 18:03:45 10° SSE 18:07:21 36° E 18:10:47 11° NNE visible
27 Dec 6.2 19:41:16 10° WSW 19:43:33 15° WNW 19:45:51 10° NW visible
